[[{"header":{"parameterUnit":"m.s-1","parameterCategory":1,"la1":30.2991,"la2":30.254,"lo1":-89.0895,"lo2":-89.0444,"dy":0.0017,"dx":0.0017,"nx":28,"ny":28,"refTime":"2025-07-27T09:00:00:Z","depth":0,"parameterNumber":2,"parameterNumberName":"U-component_of_WINDS"},"data":[0,0,0,0,0,0,0,0,0,0,0,0,0,0,0,0,0,0,0,0,0,0,0,0,0,0,0,0,0,0,0,0,0,0,0,0,0,0,0,0,0,0,0,0,0,0,0,0,0,0,0,0,0,0,0,0,0,0,2.1422,2.1422,0,2.1424,2.1424,2.1424,2.1362,2.1361,2.1359,2.1357,2.1362,2.1364,2.1366,0,0,0,0,0,0,0,0,0,0,0,0,0,2.1366,2.1367,2.1422,2.1422,2.1422,2.1424,2.1424,2.1424,2.1363,2.1361,2.1359,2.1357,2.1362,2.1364,2.1366,0,0,0,0,0,0,0,0,0,0,0,0,0,2.1381,2.1367,2.1422,2.1391,2.1388,2.1424,2.1424,2.1424,2.1363,2.1361,2.1358,2.1356,2.1361,2.1364,2.1366,2.1432,0,0,2.1374,2.1375,0,0,0,0,0,0,0,0,2.1381,2.1384,2.1396,2.1393,2.139,2.139,2.1406,2.1427,2.1364,2.1373,2.1357,2.1355,2.1374,2.1375,2.1381,2.1432,2.1432,2.1374,2.1376,2.1377,2.1377,0,0,0,0,0,0,0,2.138,2.1383,2.1423,2.1396,2.1393,2.1378,2.1378,2.141,2.1387,2.1372,2.1367,2.1368,2.1372,2.1379,2.1381,2.1432,2.1374,2.1376,2.1378,2.1379,2.154,2.1542,0,0,0,0,0,0,2.1382,2.1383,2.1423,2.1423,2.1379,2.1381,2.1381,2.1393,2.1387,2.1384,2.1371,2.1365,2.1376,2.1378,2.1381,2.1459,2.1377,2.1379,2.1381,2.1537,2.154,2.1543,0,0,0,0,0,0,2.1381,2.1386,2.1423,2.1401,2.1405,2.1385,2.1399,2.1394,2.1401,2.1386,2.1382,2.1382,2.1374,2.1377,2.142,2.1458,2.138,2.1383,2.1534,2.1538,2.1542,2.1615,0,0,0,0,0,0,2.138,2.1386,2.1411,2.1402,2.1406,2.1461,2.1401,2.1396,2.1406,2.1399,2.1395,2.1392,2.1372,2.1417,2.1423,2.146,2.1385,2.153,2.1536,2.154,2.1609,2.1621,2.1632,0,0,0,0,0,2.1378,2.1431,2.1412,2.1417,2.1436,2.1463,2.1466,2.1441,2.1409,2.1434,2.1424,2.1392,2.1453,2.1421,2.1428,2.1467,2.1528,2.1534,2.154,2.1604,2.1619,2.1631,0,0,0,0,0,0,2.1445,2.143,2.1408,2.146,2.1463,2.1453,2.1483,2.1457,2.147,2.1463,2.1433,2.1433,2.1481,2.1478,2.1443,2.1531,2.1485,2.1493,2.1532,2.1545,2.1556,2.1557,2.1387,0,0,0,0,0,2.1465,2.1488,2.1474,2.1521,2.1524,2.1503,2.1514,2.1495,2.1498,2.1499,2.1492,2.1497,2.1517,2.1531,2.1548,2.1608,2.1608,2.1638,2.165,2.1659,2.1666,2.17,2.1714,2.1564,2.1563,2.1563,0,0,2.1509,2.1503,2.1519,2.1534,2.1535,2.156,2.1505,2.1534,2.1553,2.1503,2.1544,2.1539,2.1542,2.1594,2.1617,2.1593,2.1708,2.1667,2.1674,2.1677,2.1708,2.1722,2.1735,2.1568,2.1567,2.1566,0,0,2.16,2.1598,2.1637,2.1639,2.164,2.1626,2.1636,2.163,2.1625,2.1664,2.1628,2.1651,2.1686,2.169,2.1696,2.1791,2.1763,2.1798,2.1856,2.189,2.1901,2.1912,2.1947,2.196,2.1805,2.1805,2.1805,0,2.1654,2.169,2.1661,2.1693,2.1701,2.1657,2.1699,2.1702,2.1709,2.1716,2.1689,2.1733,2.1732,2.1785,2.1809,2.1815,2.1826,2.1798,2.1902,2.1912,2.1921,2.1955,2.1968,2.1809,2.1809,2.1808,2.1808,0,2.1757,2.1782,2.1814,2.1823,2.1834,2.1871,2.1849,2.1864,2.1844,2.1834,2.1876,2.1873,2.189,2.1901,2.1881,2.1952,2.1938,2.1907,2.186,2.194,2.1972,2.1984,2.1815,2.1814,2.1813,2.1811,0,0,2.1891,2.1883,2.1895,2.1899,2.1898,2.1917,2.1952,2.1968,2.1983,2.199,2.2019,2.205,2.2022,2.203,2.2011,2.2039,2.2117,2.2005,2.2005,2.2028,2.2197,2.2222,2.2237,2.2098,2.21,2.2102,2.2198,0,2.1981,2.204,2.2016,2.2077,2.2101,2.206,2.2091,2.2094,2.2085,2.2105,2.2096,2.2119,2.2079,2.2084,2.211,2.2102,2.2151,2.2094,2.2127,2.2129,2.2129,2.2253,2.2278,2.2369,2.2209,2.2211,2.2213,0,2.2095,2.2106,2.217,2.2165,2.2174,2.2202,2.2216,2.2235,2.2238,2.223,2.224,2.2214,2.2249,2.2202,2.2251,2.2213,2.2225,2.2223,2.2226,2.2229,2.2177,2.2261,2.2397,2.2411,2.2231,2.223,2.2229,0,2.2189,2.222,2.2262,2.2266,2.2262,2.2282,2.2282,2.2282,2.2294,2.2306,2.2314,2.233,2.2339,2.2353,2.2334,2.23,2.2387,2.2337,2.2382,2.2383,2.2403,2.2403,2.2544,2.2408,2.2408,2.2408,2.2408,0,2.2293,2.2334,2.2304,2.2331,2.2376,2.2348,2.2394,2.2389,2.239,2.2416,2.2381,2.2406,2.2377,2.24,2.2385,2.243,2.2433,2.2429,2.2425,2.2433,2.2434,2.2442,2.2436,2.2412,2.2411,2.241,2.2409,0,2.2406,2.2388,2.2432,2.2424,2.2423,2.2457,2.245,2.2475,2.2464,2.2497,2.2503,2.2486,2.2511,2.2493,2.2517,2.2507,2.2566,2.2552,2.2565,2.2562,2.261,2.2606,2.2762,2.2782,2.2632,2.2633,2.2635,0,2.2475,2.2506,2.2501,2.2516,2.2517,2.254,2.2552,2.2526,2.254,2.2547,2.2571,2.2593,2.261,2.2652,2.2643,2.2662,2.265,2.2703,2.2652,2.266,2.2653,2.2652,2.2656,2.2714,2.2716,2.2717,2.2718,0,2.26,2.2589,2.2607,2.2623,2.2638,2.2649,2.2657,2.2671,2.2645,2.2663,2.2688,2.2701,2.2726,2.2749,2.2765,2.2765,2.2739,2.2734,2.2746,2.2756,2.2763,2.2762,2.2595,2.2731,2.273,2.2729,2.2728,2.2728,2.2694,2.272,2.2721,2.2743,2.2747,2.2755,2.2779,2.2771,2.2791,2.2809,2.2793,2.2823,2.2827,2.2846,2.285,2.2874,2.2852,2.2869,2.2874,2.2879,2.2887,2.2758,2.2877,2.2876,2.2876,2.2876,2.2875,0,2.2819,2.2818,2.2838,2.2851,2.2868,2.284,2.2848,2.2865,2.2892,2.2898,2.2914,2.2944,2.2967,2.2959,2.298,2.3001,2.2989,2.3007,2.3007,2.3008,2.2904,2.2892,2.3017,2.3017,2.3017,2.3017,2.3017,2.3016,2.2886,2.2929,2.2919,2.2964,2.2963,2.2992,2.2999,2.3008,2.3012,2.3047,2.3065,2.306,2.3061,2.3081,2.3101,2.3098,2.3108,2.3131,2.3125,2.3028,2.3015,2.3001,2.299,2.3133,2.3133,2.3226,2.3227,2.3228]},{"header":{"parameterUnit":"m.s-1","parameterCategory":1,"la1":30.2991,"la2":30.254,"lo1":-89.0895,"lo2":-89.0444,"dy":0.0017,"dx":0.0017,"nx":28,"ny":28,"refTime":"2025-07-27T09:00:00:Z","depth":0,"parameterNumber":3,"parameterNumberName":"V-component_of_WINDS"},"data":[0,0,0,0,0,0,0,0,0,0,0,0,0,0,0,0,0,0,0,0,0,0,0,0,0,0,0,0,0,0,0,0,0,0,0,0,0,0,0,0,0,0,0,0,0,0,0,0,0,0,0,0,0,0,0,0,0,0,-2.2851,-2.2852,0,-2.2898,-2.2898,-2.2899,-2.2885,-2.2885,-2.2884,-2.2883,-2.293,-2.2932,-2.2934,0,0,0,0,0,0,0,0,0,0,0,0,0,-2.275,-2.2752,-2.2851,-2.2852,-2.2852,-2.2898,-2.2898,-2.2899,-2.2886,-2.2884,-2.2883,-2.2882,-2.2929,-2.2932,-2.2935,0,0,0,0,0,0,0,0,0,0,0,0,0,-2.2795,-2.2753,-2.2851,-2.2851,-2.2852,-2.2898,-2.2898,-2.2899,-2.2886,-2.2884,-2.2883,-2.2882,-2.2929,-2.2932,-2.2935,-2.2984,0,0,-2.2945,-2.2946,0,0,0,0,0,0,0,0,-2.2793,-2.2799,-2.285,-2.2851,-2.2852,-2.2884,-2.288,-2.2927,-2.2886,-2.2873,-2.2883,-2.2881,-2.2916,-2.292,-2.2932,-2.2986,-2.2988,-2.2945,-2.2947,-2.2948,-2.2949,0,0,0,0,0,0,0,-2.279,-2.2797,-2.2869,-2.2851,-2.2852,-2.2849,-2.2854,-2.2889,-2.2902,-2.2874,-2.2873,-2.2879,-2.2916,-2.2929,-2.2933,-2.2989,-2.2945,-2.2948,-2.295,-2.2951,-2.3085,-2.3087,0,0,0,0,0,0,-2.2786,-2.2794,-2.2868,-2.2871,-2.2818,-2.2852,-2.2857,-2.2875,-2.2901,-2.2904,-2.288,-2.2878,-2.2924,-2.2929,-2.2935,-2.2994,-2.2948,-2.2951,-2.2953,-2.3084,-2.3086,-2.3087,0,0,0,0,0,0,-2.2784,-2.2793,-2.2866,-2.2832,-2.2842,-2.2855,-2.2876,-2.2877,-2.289,-2.2906,-2.2908,-2.2891,-2.2923,-2.293,-2.2972,-2.2995,-2.2953,-2.2956,-2.3082,-2.3084,-2.3086,-2.3113,0,0,0,0,0,0,-2.2781,-2.2792,-2.2811,-2.2833,-2.2843,-2.2902,-2.2877,-2.2879,-2.2896,-2.2893,-2.2917,-2.2919,-2.2923,-2.2967,-2.2975,-2.2999,-2.2958,-2.308,-2.3083,-2.3086,-2.311,-2.3116,-2.3121,0,0,0,0,0,-2.2777,-2.2816,-2.2812,-2.2821,-2.2867,-2.2904,-2.291,-2.2913,-2.2897,-2.2916,-2.2927,-2.2919,-2.2991,-2.2971,-2.298,-2.3006,-2.3078,-2.3082,-2.3085,-2.3107,-2.3115,-2.3121,0,0,0,0,0,0,-2.2796,-2.2819,-2.2814,-2.2861,-2.2881,-2.2901,-2.2925,-2.292,-2.2945,-2.2942,-2.2944,-2.295,-2.2993,-2.3003,-2.298,-2.3055,-2.3033,-2.3038,-2.3046,-2.3053,-2.3059,-2.3055,-2.2961,0,0,0,0,0,-2.2805,-2.2833,-2.2852,-2.2891,-2.2901,-2.2912,-2.2928,-2.2929,-2.2949,-2.2957,-2.2971,-2.2991,-2.3018,-2.3036,-2.3062,-2.3111,-2.3116,-2.3133,-2.3138,-2.3143,-2.3148,-2.3175,-2.3183,-2.3099,-2.3099,-2.3099,0,0,-2.2825,-2.2841,-2.2859,-2.2896,-2.2911,-2.294,-2.2919,-2.295,-2.2972,-2.2962,-2.3002,-2.3013,-2.3035,-2.3081,-2.3102,-2.3091,-2.3172,-2.3148,-2.3151,-2.3154,-2.318,-2.3188,-2.3195,-2.3102,-2.3101,-2.3101,0,0,-2.2877,-2.2891,-2.2926,-2.2942,-2.2965,-2.2972,-2.298,-2.3002,-2.3009,-2.3049,-2.3043,-2.3068,-2.3115,-2.3132,-2.3147,-2.3205,-2.3198,-2.3213,-2.3242,-2.3269,-2.3275,-2.3281,-2.3303,-2.331,-2.3218,-2.3218,-2.3218,0,-2.2898,-2.2942,-2.2945,-2.2977,-2.2994,-2.2986,-2.3022,-2.3037,-2.3067,-2.3079,-2.3067,-2.3126,-2.3141,-2.319,-2.3205,-2.3216,-2.3226,-2.3211,-2.3274,-2.328,-2.3286,-2.3306,-2.3314,-2.322,-2.3219,-2.3219,-2.3219,0,-2.2968,-2.2999,-2.3024,-2.3054,-2.3073,-2.3107,-2.3115,-2.3134,-2.3134,-2.3142,-2.3183,-2.32,-2.323,-2.3242,-2.3241,-2.3292,-2.3285,-2.3273,-2.3251,-2.3295,-2.3315,-2.3322,-2.3222,-2.3221,-2.3221,-2.322,0,0,-2.3032,-2.3064,-2.3073,-2.3087,-2.3113,-2.3136,-2.317,-2.3199,-2.3216,-2.3237,-2.3266,-2.3306,-2.3296,-2.3312,-2.3314,-2.3337,-2.3383,-2.3323,-2.3323,-2.3334,-2.344,-2.3449,-2.3458,-2.3378,-2.338,-2.3381,-2.3439,0,-2.3087,-2.3146,-2.3149,-2.3203,-2.3232,-2.3225,-2.3254,-2.3273,-2.3281,-2.3307,-2.3316,-2.3345,-2.3329,-2.3339,-2.3362,-2.3372,-2.3404,-2.3368,-2.3405,-2.3407,-2.3401,-2.3468,-2.3478,-2.3531,-2.3446,-2.3447,-2.3448,0,-2.3158,-2.3182,-2.3238,-2.326,-2.3272,-2.3299,-2.3326,-2.335,-2.3372,-2.3376,-2.3395,-2.3393,-2.3428,-2.3404,-2.3452,-2.3428,-2.3443,-2.3451,-2.3453,-2.3457,-2.3431,-2.3475,-2.3548,-2.3557,-2.346,-2.3459,-2.3458,0,-2.32,-2.3246,-2.3286,-2.3298,-2.3325,-2.3344,-2.3355,-2.3375,-2.3393,-2.3417,-2.3428,-2.3456,-2.3471,-2.3493,-2.3498,-2.3481,-2.3547,-2.3523,-2.3552,-2.3552,-2.3566,-2.3565,-2.3644,-2.3575,-2.3575,-2.3575,-2.3575,0,-2.326,-2.3295,-2.3306,-2.3331,-2.337,-2.3374,-2.3412,-2.3423,-2.3441,-2.3468,-2.3463,-2.3489,-2.3494,-2.3521,-2.3525,-2.3565,-2.3571,-2.3576,-2.3577,-2.3577,-2.3577,-2.3588,-2.3584,-2.3577,-2.3576,-2.3576,-2.3576,0,-2.3314,-2.3323,-2.3366,-2.3388,-2.3394,-2.3422,-2.344,-2.3464,-2.3472,-2.3506,-2.3515,-2.3527,-2.3558,-2.3566,-2.3602,-2.3605,-2.3652,-2.3649,-2.3645,-2.3645,-2.3674,-2.3671,-2.3763,-2.3775,-2.3697,-2.3698,-2.3699,0,-2.3353,-2.338,-2.3404,-2.3422,-2.3435,-2.3463,-2.3482,-2.3486,-2.3505,-2.3532,-2.3553,-2.3583,-2.3608,-2.3658,-2.367,-2.3698,-2.3696,-2.3726,-2.3701,-2.37,-2.3698,-2.3696,-2.3699,-2.3732,-2.3732,-2.3733,-2.3734,0,-2.342,-2.3423,-2.3449,-2.3478,-2.3499,-2.3521,-2.3543,-2.3557,-2.3565,-2.3587,-2.3618,-2.3637,-2.3675,-2.3706,-2.3734,-2.3747,-2.3742,-2.3742,-2.375,-2.375,-2.3747,-2.375,-2.366,-2.374,-2.3739,-2.3739,-2.3738,-2.3738,-2.3468,-2.3492,-2.3514,-2.3543,-2.356,-2.358,-2.3603,-2.3614,-2.3641,-2.3672,-2.3673,-2.3708,-2.3729,-2.3767,-2.3781,-2.3808,-2.3799,-2.3811,-2.3814,-2.3817,-2.382,-2.3742,-2.3813,-2.3813,-2.3813,-2.3813,-2.3813,0,-2.3536,-2.355,-2.3577,-2.3607,-2.363,-2.3623,-2.3647,-2.3667,-2.3697,-2.3717,-2.3742,-2.3779,-2.3808,-2.3823,-2.3853,-2.3872,-2.387,-2.388,-2.3879,-2.3882,-2.3826,-2.3816,-2.388,-2.388,-2.388,-2.388,-2.388,-2.388,-2.3575,-2.3615,-2.3621,-2.3669,-2.3682,-2.3716,-2.373,-2.3749,-2.3765,-2.3806,-2.3831,-2.3841,-2.3859,-2.389,-2.3917,-2.392,-2.3932,-2.3942,-2.3945,-2.3892,-2.3885,-2.3879,-2.387,-2.3944,-2.3944,-2.3998,-2.3999,-2.3999]}]]